GW6099 Weather Reports


time (UTC)temp
C
wind
direction
speed
KPH
gust
KPH
rain 1hr
cm
rain 24hr
cm
rain mn
cm
humidity
%
barometer
mb
20260510174512 20 49 6.4 17.7 0.00 0.00 0.00 44 1020.0
20260510173012 20 335 3.2 16.1 0.00 0.00 0.00 45 1020.1
20260510171512 19 52 8.0 22.5 0.00 0.00 0.00 45 1019.9
20260510170011 19 22 8.0 14.5 0.00 0.00 0.00 52 1020.0
20260510164517 18 68 6.4 19.3 0.00 0.00 0.00 49 1019.9
20260510163013 18 67 6.4 12.9 0.00 0.00 0.00 52 1019.6
20260510161515 18 36 8.0 19.3 0.00 0.00 0.00 53 1019.5
20260510160012 18 48 6.4 16.1 0.00 0.00 0.00 57 1019.5
20260510154517 18 18 8.0 16.1 0.00 0.00 0.00 53 1019.5
20260510153016 18 12 3.2 16.1 0.00 0.00 0.00 57 1019.5
20260510151516 18 300 3.2 17.7 0.00 0.00 0.00 56 1019.6
20260510150016 18 51 8.0 19.3 0.00 0.00 0.00 59 1019.5
20260510144519 17 58 8.0 16.1 0.00 0.00 0.00 61 1019.3
20260510143033 17 24 8.0 19.3 0.00 0.00 0.00 61 1019.3
20260510141521 17 27 8.0 19.3 0.00 0.00 0.00 63 1018.9
20260510140018 17 37 6.4 19.3 0.00 0.00 0.00 65 1018.8
20260510134520 16 41 9.7 20.9 0.00 0.00 0.00 68 1018.7
20260510133016 16 23 6.4 16.1 0.00 0.00 0.00 72 1018.3
20260510131523 15 16 8.0 20.9 0.00 0.00 0.00 76 1018.2
20260510130021 15 18 6.4 14.5 0.00 0.00 0.00 82 1017.9
20260510124507 14 15 0.0 9.7 0.00 0.00 0.00 89 1018.1
20260510123024 12 354 0.0 0.0 0.00 0.00 0.00 94 1017.8
20260510121521 11 316 0.0 0.0 0.00 0.00 0.00 96 1017.6
20260510120004 11 321 0.0 0.0 0.00 0.00 0.00 95 1017.4
20260510114506 10 320 0.0 1.6 0.00 0.00 0.00 95 1017.3
20260510113015 10 346 0.0 0.0 0.00 0.00 0.00 95 1016.9
20260510111514 10 346 0.0 0.0 0.00 0.03 0.00 95 1016.5
20260510110031 10 347 0.0 0.0 0.00 0.03 0.00 94 1016.0
20260510104504 10 345 0.0 0.0 0.00 0.03 0.00 95 1016.0
20260510103007 10 345 0.0 0.0 0.00 0.03 0.00 94 1015.9
20260510101511 10 345 0.0 0.0 0.00 0.03 0.00 94 1015.8
20260510100018 11 96 0.0 0.0 0.00 0.03 0.00 94 1015.5
20260510094541 11 76 0.0 0.0 0.00 0.03 0.00 93 1015.4
20260510093023 11 15 0.0 1.6 0.00 0.03 0.00 93 1015.3
20260510091517 11 177 0.0 0.0 0.00 0.03 0.00 92 1015.2
20260510090015 11 177 0.0 0.0 0.00 0.03 0.00 91 1014.7
20260510084521 11 187 0.0 0.0 0.00 0.03 0.00 91 1014.6
20260510083022 12 186 0.0 0.0 0.00 0.03 0.00 91 1014.9
20260510081527 12 186 0.0 0.0 0.00 0.03 0.00 91 1015.0
20260510080014 12 186 0.0 0.0 0.00 0.03 0.00 91 1014.7
20260510074516 12 268 0.0 0.0 0.00 0.03 0.00 90 1014.4
20260510073026 12 146 0.0 0.0 0.00 0.03 0.00 90 1014.4
20260510071525 12 146 0.0 0.0 0.00 0.03 0.00 89 1014.3
20260510070032 12 146 0.0 0.0 0.00 0.03 0.00 89 1014.2
20260510064513 12 110 0.0 0.0 0.00 0.03 0.00 90 1014.3
20260510063004 12 192 0.0 0.0 0.00 0.03 0.00 89 1014.4
20260510061504 12 205 0.0 0.0 0.00 0.03 0.00 87 1014.5
20260510060010 12 128 0.0 0.0 0.00 0.03 0.00 87 1014.3
20260510054512 12 103 0.0 0.0 0.00 0.03 0.00 87 1014.4
20260510053042 13 101 0.0 0.0 0.00 0.03 0.00 85 1014.4
20260510051504 12 286 0.0 14.5 0.00 0.03 0.00 90 1014.3
20260510050008 12 115 0.0 0.0 0.00 0.03 0.00 91 1013.7
20260510044511 12 108 0.0 0.0 0.00 0.03 0.03 91 1013.6
20260510043021 12 115 0.0 0.0 0.00 0.03 0.03 91 1013.2
20260510041524 12 115 0.0 0.0 0.00 0.03 0.03 91 1013.2
20260510040004 12 120 0.0 0.0 0.00 0.03 0.03 90 1013.3
20260510034506 12 146 0.0 0.0 0.00 0.05 0.03 90 1013.3
20260510033012 12 108 0.0 0.0 0.00 0.05 0.03 89 1013.5
20260510031523 13 108 0.0 0.0 0.00 0.10 0.03 87 1013.3
20260510030022 14 108 0.0 0.0 0.00 0.15 0.03 86 1013.0
20260510024505 13 108 0.0 0.0 0.00 0.15 0.03 86 1012.7
20260510023011 15 140 0.0 0.0 0.00 0.15 0.03 83 1012.4
20260510021530 15 141 0.0 0.0 0.00 0.15 0.03 80 1012.1
20260510020020 16 156 0.0 0.0 0.00 0.15 0.03 78 1011.7
20260510014526 17 131 0.0 1.6 0.00 0.15 0.03 75 1011.6
20260510013006 18 141 0.0 0.0 0.00 0.15 0.03 71 1011.3
20260510011511 18 125 0.0 0.0 0.00 0.15 0.03 68 1011.1
20260510010017 20 136 0.0 0.0 0.00 0.15 0.03 63 1011.0
20260510004526 21 134 0.0 0.0 0.00 0.15 0.03 60 1010.9
20260510003024 22 143 0.0 0.0 0.00 0.15 0.03 54 1010.7
20260510001509 26 233 0.0 0.0 0.00 0.15 0.03 45 1010.4
20260510000013 28 223 0.0 0.0 0.00 0.15 0.03 38 1010.4
20260509234519 27 232 0.0 1.6 0.00 0.15 0.03 35 1010.5
20260509233022 27 272 0.0 3.2 0.00 0.15 0.03 31 1010.3
20260509231526 27 233 0.0 1.6 0.00 0.15 0.03 37 1010.4
20260509230026 27 249 0.0 1.6 0.00 0.15 0.03 35 1010.4
20260509224513 28 248 0.0 0.0 0.00 0.15 0.03 35 1010.4
20260509223020 27 236 0.0 1.6 0.00 0.15 0.03 36 1010.4
20260509221524 27 260 0.0 1.6 0.00 0.15 0.03 37 1010.3
20260509220026 27 309 0.0 3.2 0.00 0.15 0.03 31 1010.3
20260509214528 27 248 0.0 1.6 0.00 0.15 0.03 35 1010.2
20260509213027 26 241 1.6 8.0 0.00 0.15 0.03 34 1010.4
20260509211502 26 314 0.0 4.8 0.00 0.15 0.03 37 1010.6
20260509210006 26 248 0.0 3.2 0.00 0.15 0.03 35 1010.9
20260509204510 26 274 0.0 6.4 0.00 0.15 0.03 32 1010.9
20260509203004 26 311 1.6 9.7 0.00 0.15 0.03 37 1011.1
20260509201503 26 294 1.6 11.3 0.00 0.15 0.03 41 1011.2
20260509200024 26 254 0.0 4.8 0.00 0.15 0.03 35 1011.3
20260509194506 26 291 0.0 4.8 0.00 0.15 0.03 35 1011.3
20260509193024 26 260 1.6 6.4 0.00 0.15 0.03 41 1011.2
20260509191503 26 314 0.0 14.5 0.00 0.15 0.03 35 1011.3
20260509190004 25 315 3.2 11.3 0.00 0.15 0.03 36 1011.3
20260509184517 25 340 1.6 9.7 0.00 0.15 0.03 41 1011.3
20260509183008 25 303 3.2 9.7 0.00 0.15 0.03 47 1011.4
20260509181514 25 266 3.2 12.9 0.00 0.15 0.03 44 1011.5
20260509180004 25 316 1.6 6.4 0.00 0.15 0.03 48 1011.6